Flag for Mexico Weather past 2 weeks in Cozumel, Quintana Roo, Mexico

Now
86 °F

Passing clouds.


Feels Like: 92 °F
Forecast: N/A
Wind: 12 mph from Southeast

Location: Cozumel Civ / Mil

Current Time: Jul 31, 2014 at 6:43:16 PM

Latest Report: Jul 31, 2014 at 5:41 PM


Visibility: 8 mi

Pressure: 29.94 "Hg

Humidity: 62%

Dew point: 72 °F

Location of CozumelLocation

Historic Weather in Cozumel — Graph

°F

Cozumel temperature yesterday

Maximum temperature yesterday: 90 °F (at 1:40 PM)
Minimum temperature yesterday: 72 °F (at 5:44 AM)
Average temperature yesterday: 80 °F

Past Weeks' High & Low Weather Summary

 TemperatureHumidityPressure
High90 °F (Jul 19, 2:42 PM)100% (Jul 16, 9:45 PM)30.10 "Hg (Jul 16, 9:45 PM)
Low70 °F (Jul 31, 5:44 AM)49% (Jul 23, 2:44 PM)29.91 "Hg (Jul 29, 4:22 AM)
Average80 °F87%30.02 "Hg
* Reported Jul 16 4:53 PM — Jul 31 4:45 PM, Cozumel, Weather by CustomWeather, © 2014

Note: Actual official high and low records may vary slightly from our data, if they occured in-between our weather recording intervals... More about our weather records

Advertising

Cozumel weather history for previous 24 hours

 ConditionsComfort  
Time TempWeatherWind HumidityBarometerVisibility
4:45 PM
Jul 31
90 °FSunny.9 mph59%29.93 "Hg8 mi
3:40 PM88 °FPassing clouds.8 mph62%29.97 "Hg8 mi
2:44 PM86 °FScattered clouds.5 mph70%29.97 "Hg8 mi
1:41 PM86 °FPartly sunny.6 mph75%30.00 "Hg8 mi
12:45 PM84 °FPartly sunny.6 mph74%30.00 "Hg8 mi
11:40 AM84 °FScattered clouds.12 mph74%29.99 "Hg8 mi
10:40 AM82 °FScattered clouds.8 mph84%30.00 "Hg8 mi
9:41 AM82 °FPartly sunny.6 mph84%30.02 "Hg8 mi
8:45 AM82 °FScattered clouds.3 mph79%30.00 "Hg8 mi
7:45 AM77 °FScattered clouds.No wind94%29.99 "Hg8 mi
6:46 AM70 °FPassing clouds.No wind100%29.94 "Hg7 mi
5:44 AM70 °FPassing clouds.No wind100%29.97 "Hg7 mi
4:41 AM72 °FPassing clouds.No wind100%29.97 "Hg7 mi
3:41 AM72 °FPassing clouds.No wind100%30.01 "Hg7 mi
2:43 AM73 °FPassing clouds.No wind100%30.00 "Hg7 mi
1:41 AM73 °FPassing clouds.No wind100%30.02 "Hg7 mi
12:48 AM73 °FPassing clouds.No wind100%29.96 "Hg7 mi
11:47 PM
Jul 30
75 °FPassing clouds.No wind100%30.02 "Hg7 mi
10:42 PM77 °FPassing clouds.No wind100%30.03 "Hg7 mi
9:47 PM79 °FPassing clouds.No wind94%30.06 "Hg7 mi
8:43 PM79 °FPassing clouds.No wind94%30.02 "Hg7 mi
7:40 PM81 °FScattered clouds.5 mph89%30.00 "Hg7 mi
6:40 PM82 °FPassing clouds.7 mph84%29.96 "Hg8 mi
Weather by CustomWeather, © 2014

See weather overviewHow to use our weather pages